Regional Weather Roundup
Issued by NWS Mt. Holly, NJ

Home | Current Version | Previous Version | Text Only | Print | Product List | Glossary On
Versions: 1 2 3 4 5 6 7 8 9 10 11 12 13 14 15 16 17 18 19 20 21 22 23 24 25 26 27 28 29 30 31 32 33 34 35 36 37 38 39 40 41 42 43 44 45 46 47 48 49 50
000
ASUS41 KPHI 190113
RWRPHI

REGIONAL WEATHER ROUNDUP
NATIONAL WEATHER SERVICE MOUNT HOLLY NJ
900 PM EDT TUE SEP 18 2018

NOTE:  "FAIR" INDICATES FEW OR NO CLOUDS BELOW 12,000 FEET WITH NO
SIGNIFICANT WEATHER AND/OR OBSTRUCTIONS TO VISIBILITY.

 * = STATION DOES NOT REPORT PRECIPITATION (E.G. RAIN, SNOW, ETC.)
        OR FOG.

NJZ015>026-190200-
SOUTHERN NEW JERSEY

CITY           SKY/WX    TMP DP  RH WIND       PRES   REMARKS
POMONA         MOCLDY    73  72  96 N6        29.78R
WILDWOOD*      CLOUDY    73  72  94 N8        29.78R
MILLVILLE      MOCLDY    73  69  87 N7        29.79R
WRIGHTSTOWN    CLEAR     69  67  93 NW5       29.77R
MOUNT HOLLY    FAIR      69  69 100 CALM      29.80R
TRENTON        FAIR      70  67  90 N3        29.80R

$$
NJZ001>014-190200-
NORTHERN NEW JERSEY

CITY           SKY/WX    TMP DP  RH WIND       PRES   REMARKS
SUSSEX         FAIR      68  68 100 CALM      29.82S FOG
ANDOVER*         N/A     68  66  93 CALM      29.83R
MORRISTOWN     CLEAR     70  70 100 NW5       29.81R
NEWARK         FAIR      73  69  87 NW3       29.79R
TETERBORO      FAIR      72  70  93 CALM      29.78R
CALDWELL       FAIR      70  70 100 CALM      29.81R
SOMERVILLE     FAIR      68  67  96 CALM      29.79S FOG
ALLAIRE*       FAIR      70  68  93 N5        29.80R
TOMS RIVER*    CLOUDY    70  69  97 N3        29.80R

$$
PAZ043-044-047-054-055-060>062-066>071-190200-
EASTERN PENNSYLVANIA

CITY           SKY/WX    TMP DP  RH WIND       PRES   REMARKS
PHILADELPHIA   FAIR      73  66  78 N5        29.80R
NORTH PHILA    FAIR      72  67  84 NE3       29.81S
BLUE BELL*     FAIR      66  66 100 CALM      29.83R
DOYLESTOWN     FAIR      69  67  93 CALM      29.81R
QUAKERTOWN*    CLEAR     70  70 100 CALM      29.83R
PERKASIE*      FOG       68  68 100 CALM      29.83S VSB 1/2
POTTSTOWN      FAIR      69  69 100 CALM      29.83R
LANCASTER      FAIR      73  68  84 NW6       29.83R
COATESVILLE    FAIR      72  66  83 CALM      29.84S
READING        FAIR      74  67  78 CALM      29.81R
ALLENTOWN      FAIR      73  65  75 NW6       29.82R
MOUNT POCONO   FAIR      64  63  96 CALM      29.89R
LEHIGHTON      FAIR      64  64 100 CALM      29.85R FOG
WILKES BARRE   MOCLDY    68  66  93 SE3       29.85R

$$
DEZALL-MDZ008-012-015-019-020-190200-
DELAWARE AND EASTERN MARYLAND

CITY           SKY/WX    TMP DP  RH WIND       PRES   REMARKS
WILMINGTON       N/A     73  71  93 MISG      29.81R
DOVER          CLOUDY    74  70  87 N7        29.79R
GEORGETOWN     FAIR      74  73  97 N6        29.79R
EASTON         MOCLDY    75  73  94 N3        29.84R
PATUXENT       MOCLDY    75  72  90 W5        29.80
OCEAN CITY     CLOUDY    74  73  97 N7        29.77S
WALLOPS ISLAND RAIN      75  74  96 N9G17     29.78
CAMBRIDGE      CLOUDY    75  73  94 N5        29.80R
SALISBURY      CLOUDY    74  74 100 NW6       29.78R

$$
PAZ001-021-NYZ056-072-MDZ011-DCZ001-190200-
OTHER NEARBY LOCATIONS

CITY           SKY/WX    TMP DP  RH WIND       PRES   REMARKS
HARRISBURG     FAIR      72  68  87 NW6       29.83R
STATE COLLEGE  CLEAR     72  66  83 W3        29.91R
WILLIAMSPORT   FAIR      70  67  90 CALM      29.84R
BINGHAMTON     FAIR      68  65  90 N7        29.89R
NEW YORK CITY  FAIR      71  69  93 W3        29.82R
BALTIMORE      FAIR      73  69  87 W3        29.82R
WASHINGTON DC  FAIR      78  67  68 N9        29.83R

$$



USA.gov is the U.S. government's official web portal to all federal, state and local government web resources and services.